• Processing (Info)

  • MPEC 2014-R07 : 2014 QG365

    The following Minor Planet Electronic Circular may be linked-to from your own Web pages, but must not otherwise be redistributed electronically.

    A form allowing access to any MPEC is at the bottom of this page.


    Read MPEC 2014-R06 Read MPEC 2014-R08


    M.P.E.C. 2014-R07                                Issued 2014 Sept. 1, 14:28 UT
    
         The Minor Planet Electronic Circulars contain information on unusual
             minor planets and routine data on comets.  They are published
       on behalf of Commission 20 of the International Astronomical Union by the
              Minor Planet Center, Smithsonian Astrophysical Observatory,
                              Cambridge, MA 02138, U.S.A.
    
                 Prepared using the Tamkin Foundation Computer Network
    
                                  MPC@CFA.HARVARD.EDU
                URL https://www.minorplanetcenter.net/    ISSN 1523-6714
    
                                      2014 QG365
    
    Observations:
         K14Qa5G* C2014 08 27.52704 00 25 39.039+06 32 49.93         21.7 wLER007F51
         K14Qa5G  C2014 08 27.54066 00 25 40.880+06 33 15.46         21.8 wLER007F51
         K14Qa5G  C2014 08 27.55426 00 25 42.696+06 33 40.78         21.9 wLER007F51
         K14Qa5G  C2014 08 27.56787 00 25 44.516+06 34 06.16         21.8 wLER007F51
         K14Qa5G _C2014 08 28.39523300 27 47.460+07 00 09.58         21.0 RtER007568
         K14Qa5G _C2014 08 28.39774000 27 47.803+07 00 14.33         21.2 RtER007568
         K14Qa5G KC2014 08 29.42240 00 30 17.92 +07 32 57.1          21.0 RoER007291
         K14Qa5G KC2014 08 29.42616 00 30 18.46 +07 33 04.2                oER007291
         K14Qa5G KC2014 08 29.42992 00 30 18.97 +07 33 11.5                oER007291
         K14Qa5G KC2014 09 01.33067 00 37 40.38 +09 09 02.0          21.2 RoER007291
         K14Qa5G KC2014 09 01.33376 00 37 40.82 +09 09 08.0          21.3 RoER007291
         K14Qa5G KC2014 09 01.33686 00 37 41.27 +09 09 15.0          21.4 RoER007291
    
    Observer details:
    291 LPL/Spacewatch II.  Observers R. S. McMillan, J. V. Scotti.  1.8-m f/2.7
        reflector + CCD.
    568 Mauna Kea.  Observers R. J. Wainscoat, L. Wells.  Measurers M. Micheli,
        R. J. Wainscoat.  3.6-m Canada-France-Hawaii Telescope + CCD.
    F51 Pan-STARRS 1, Haleakala.  Observers N. Primak, A. Schultz, T. Goggia,
        M. Willman.  Measurers B. Bolin, K. Chambers, S. Chastel, L. Denneau,
        H. Flewelling, M. Huber, E. Magnier, E. Schunova, R. Wainscoat, C. Waters.
        1.8-m Ritchey-Chretien + CCD.
    
    Orbital elements:
    2014 QG365                                               Earth MOID = 0.1838 AU
    Epoch 2014 Dec. 9.0 TT = JDT 2457000.5                  MPC
    M  15.23820              (2000.0)            P               Q
    n   0.24614326     Peri.   52.28148     +0.94202267     -0.33411291
    a   2.5216071      Node   327.20408     +0.28702661     +0.85022583
    e   0.5338725      Incl.    3.28244     +0.17380740     +0.40679799
    P   4.00           H   22.5           G   0.15           U   7
    Residuals in seconds of arc
    140827 F51  0.2-  0.1+    140828 568  0.2-  0.3-    140829 291  0.0   0.1-
    140827 F51  0.1+  0.1+    140828 568  0.2-  0.3-    140901 291  0.1-  0.1-
    140827 F51  0.1-  0.1-    140829 291  0.1-  0.0     140901 291  0.2-  0.3-
    140827 F51  0.2-  0.2-    140829 291  0.2+  0.1-    140901 291  0.1-  0.3+
    
    Ephemeris:
    2014 QG365               a,e,i = 2.52, 0.53, 3                   q = 1.1754
    Date    TT    R. A. (2000) Decl.     Delta      r     Elong.  Phase     V
    2014 08 02    23 31 16.6 -03 58 57   0.4679  1.3966   137.6    29.3    22.9
    ...
    2014 08 17    00 01 35.6 +01 33 47   0.3586  1.3162   142.8    27.7    22.1
    ...
    2014 08 25    00 19 36.8 +05 15 41   0.3122  1.2789   144.8    27.1    21.7
    ...
    2014 08 31    00 34 15.6 +08 24 42   0.2829  1.2539   145.9    26.8    21.5
    2014 09 01    00 36 48.6 +08 58 04   0.2785  1.2501   146.0    26.8    21.4
    2014 09 02    00 39 23.6 +09 31 57   0.2743  1.2463   146.2    26.8    21.4
    ...
    2014 09 08    00 55 37.5 +13 04 57   0.2514  1.2254   146.6    26.9    21.2
    ...
    2014 09 16    01 19 12.2 +18 07 14   0.2283  1.2027   146.6    27.4    20.9
    ...
    2014 10 01    02 07 20.7 +27 13 04   0.2065  1.1782   146.0    28.4    20.7
    
    A. U. Tomatic                (C) Copyright 2014 MPC           M.P.E.C. 2014-R07
    

    Read MPEC 2014-R06 Read MPEC 2014-R08


    MPEC number:

    Enter an MPEC number in one of the following forms:

    • 1997-B01 (the full form)
    • J97B01 (the packed version of the full form)
    • B01 (the abbreviated form)